Regional Weather Roundup
Issued by NWS

Home | Current Version | Previous Version | Text Only | Print | Product List | Glossary On
Versions: 1 2 3 4 5 6 7 8 9 10 11 12 13 14 15 16 17 18 19 20 21 22 23 24 25 26 27 28 29 30 31 32 33 34 35 36 37 38 39 40 41 42 43 44 45 46 47 48 49 50
000
ASPQ40 PGUM 040114
RWRPQ
WEATHER ROUNDUP FOR THE MARIANAS AND MICRONESIA
NATIONAL WEATHER SERVICE TIYAN GU
1100 AM CHST SAT JUL 04 2015

GUZ001>004-040200-
MARIANA ISLANDS-

CITY           SKY/WX    TMP DP  RH WIND       PRES   REMARKS
GUAM AIRPORT   LGT RAIN  84  81  89 NE15G24   29.59S HX  98
ANDERSEN AFB   MOSUNNY   82  75  78 NE18G29   29.59S
ROTA AIRPORT   NOT AVBL
TINIAN AP      NOT AVBL
SAIPAN AP      PTSUNNY   84  81  89 NE18G33   29.59F HX  98

$$

PMZ161-040200-
REPUBLIC OF PALAU-

CITY           SKY/WX    TMP DP  RH WIND       PRES   REMARKS
KOROR AP       PTSUNNY   86  75  70 W12G18    29.83S HX  95
KOROR WSO      CLOUDY    86  77  74 W13       29.83S HX  97

$$

PMZ171>174-040200-
FEDERATED STATES OF MICRONESIA-

CITY           SKY/WX    TMP DP  RH WIND       PRES   REMARKS
YAP AIRPORT    CLOUDY    82  77  83 W8        29.76F HX  91
CHUUK AP       CLOUDY    84  79  84 SW12G17   29.69  HX  96
POHNPEI AP     CLOUDY    82  77  83 S9        29.75F HX  91
POHNPEI WSO    CLOUDY    82  75  78 SW6       29.78
KOSRAE AP      CLOUDY    86  75  70 NW12      29.77F HX  95

$$

PMZ181-040200-
REPUBLIC OF THE MARSHALL ISLANDS-

CITY           SKY/WX    TMP DP  RH WIND       PRES   REMARKS
KWAJALEIN AP   MOSUNNY   84  73  70 NW10G20   29.71  HX  91
MAJURO AP      NOT AVBL
MAJURO WSO     MOSUNNY   86  79  79 SW17      29.71F HX  99

$$




USA.gov is the U.S. government's official web portal to all federal, state and local government web resources and services.